TimeCDT,TemperatureF,Dew PointF,Humidity,Sea Level PressureIn,VisibilityMPH,Wind Direction,Wind SpeedMPH,Gust SpeedMPH,PrecipitationIn,Events,Conditions,WindDirDegrees,DateUTC
12:15 AM,46.4,42.8,87,30.00,10.0,WSW,6.9,-,N/A,,Clear,250,2013-10-06 05:15:00
12:35 AM,46.4,42.8,87,29.99,10.0,WSW,6.9,-,N/A,,Clear,240,2013-10-06 05:35:00
12:55 AM,46.4,42.8,87,29.98,10.0,SW,5.8,-,0.01,,Clear,230,2013-10-06 05:55:00
1:15 AM,46.4,42.8,87,29.97,10.0,SW,5.8,-,N/A,,Clear,220,2013-10-06 06:15:00
1:35 AM,46.4,42.8,87,29.97,10.0,SW,6.9,-,N/A,,Clear,220,2013-10-06 06:35:00
1:55 AM,46.4,42.8,87,29.97,10.0,WSW,5.8,-,N/A,,Clear,250,2013-10-06 06:55:00
2:15 AM,46.4,42.8,87,29.96,10.0,WSW,6.9,-,N/A,,Clear,240,2013-10-06 07:15:00
2:35 AM,46.4,42.8,87,29.96,10.0,WSW,6.9,-,N/A,,Clear,240,2013-10-06 07:35:00
2:55 AM,44.6,42.8,93,29.95,10.0,WSW,5.8,-,N/A,,Clear,250,2013-10-06 07:55:00
3:15 AM,44.6,42.8,93,29.95,10.0,West,6.9,-,N/A,,Clear,260,2013-10-06 08:15:00
3:35 AM,44.6,42.8,93,29.95,10.0,WSW,6.9,-,N/A,,Clear,250,2013-10-06 08:35:00
3:55 AM,44.6,42.8,93,29.94,10.0,WSW,6.9,-,N/A,,Clear,240,2013-10-06 08:55:00
4:15 AM,44.6,41.0,87,29.94,10.0,WSW,6.9,-,N/A,,Clear,240,2013-10-06 09:15:00
4:35 AM,44.6,41.0,87,29.94,10.0,West,8.1,-,N/A,,Clear,260,2013-10-06 09:35:00
4:55 AM,44.6,39.2,81,29.94,10.0,WSW,5.8,-,N/A,,Clear,250,2013-10-06 09:55:00
5:15 AM,44.6,39.2,81,29.94,10.0,SW,4.6,-,N/A,,Clear,230,2013-10-06 10:15:00
5:35 AM,42.8,39.2,87,29.94,10.0,SSW,5.8,-,N/A,,Clear,210,2013-10-06 10:35:00
5:55 AM,42.8,39.2,87,29.95,10.0,SW,5.8,-,N/A,,Clear,230,2013-10-06 10:55:00
6:15 AM,42.8,37.4,81,29.95,10.0,West,5.8,-,N/A,,Clear,260,2013-10-06 11:15:00
6:35 AM,42.8,37.4,81,29.96,10.0,WSW,4.6,-,N/A,,Clear,240,2013-10-06 11:35:00
6:55 AM,42.8,37.4,81,29.96,10.0,West,5.8,-,N/A,,Clear,260,2013-10-06 11:55:00
7:15 AM,42.8,35.6,76,29.96,10.0,West,9.2,-,N/A,,Clear,270,2013-10-06 12:15:00
7:35 AM,42.8,37.4,81,29.96,10.0,West,6.9,-,N/A,,Clear,270,2013-10-06 12:35:00
7:55 AM,42.8,37.4,81,29.97,10.0,WSW,4.6,-,N/A,,Clear,250,2013-10-06 12:55:00
8:15 AM,44.6,37.4,76,29.97,10.0,WSW,5.8,-,N/A,,Clear,250,2013-10-06 13:15:00
8:35 AM,46.4,37.4,71,29.97,10.0,West,10.4,-,N/A,,Clear,270,2013-10-06 13:35:00
8:55 AM,46.4,37.4,71,29.98,10.0,WNW,13.8,18.4,N/A,,Clear,290,2013-10-06 13:55:00
9:15 AM,48.2,37.4,66,29.98,10.0,West,10.4,-,N/A,,Clear,270,2013-10-06 14:15:00
9:35 AM,48.2,37.4,66,29.98,10.0,West,12.7,21.9,N/A,,Clear,280,2013-10-06 14:35:00
9:55 AM,50.0,39.2,66,29.99,10.0,West,11.5,19.6,N/A,,Clear,280,2013-10-06 14:55:00
10:15 AM,50.0,37.4,62,29.99,10.0,WNW,12.7,17.3,N/A,,Clear,290,2013-10-06 15:15:00
10:35 AM,51.8,37.4,58,29.99,10.0,WNW,9.2,16.1,N/A,,Clear,290,2013-10-06 15:35:00
10:55 AM,51.8,37.4,58,30.00,10.0,West,10.4,-,N/A,,Scattered Clouds,270,2013-10-06 15:55:00
11:15 AM,51.8,37.4,58,30.00,10.0,WNW,11.5,-,N/A,,Scattered Clouds,300,2013-10-06 16:15:00
11:35 AM,51.8,39.2,62,30.00,10.0,NW,11.5,19.6,N/A,,Scattered Clouds,310,2013-10-06 16:35:00
11:55 AM,53.6,39.2,58,30.00,10.0,West,11.5,-,N/A,,Scattered Clouds,280,2013-10-06 16:55:00
12:15 PM,53.6,41.0,62,29.99,10.0,West,13.8,18.4,N/A,,Scattered Clouds,270,2013-10-06 17:15:00
12:35 PM,53.6,41.0,62,29.99,10.0,West,10.4,-,N/A,,Scattered Clouds,260,2013-10-06 17:35:00
12:55 PM,55.4,41.0,58,29.99,10.0,West,13.8,19.6,N/A,,Mostly Cloudy,270,2013-10-06 17:55:00
1:15 PM,53.6,41.0,62,29.98,10.0,West,12.7,18.4,N/A,,Mostly Cloudy,280,2013-10-06 18:15:00
1:35 PM,55.4,41.0,58,29.98,10.0,West,17.3,21.9,N/A,,Mostly Cloudy,270,2013-10-06 18:35:00
1:55 PM,55.4,41.0,58,29.97,10.0,West,11.5,18.4,N/A,,Overcast,270,2013-10-06 18:55:00
2:15 PM,55.4,41.0,58,29.97,10.0,West,11.5,19.6,N/A,,Overcast,280,2013-10-06 19:15:00
2:35 PM,59.0,42.8,55,29.96,10.0,West,15.0,19.6,N/A,,Overcast,270,2013-10-06 19:35:00
2:55 PM,59.0,41.0,51,29.97,10.0,West,17.3,23.0,N/A,,Overcast,280,2013-10-06 19:55:00
3:15 PM,59.0,41.0,51,29.96,10.0,West,13.8,24.2,N/A,,Overcast,280,2013-10-06 20:15:00
3:35 PM,59.0,41.0,51,29.96,10.0,WNW,12.7,19.6,N/A,,Mostly Cloudy,290,2013-10-06 20:35:00
3:55 PM,59.0,41.0,51,29.96,10.0,West,15.0,20.7,N/A,,Scattered Clouds,280,2013-10-06 20:55:00
4:15 PM,59.0,42.8,55,29.96,10.0,WNW,13.8,-,N/A,,Scattered Clouds,290,2013-10-06 21:15:00
4:35 PM,60.8,41.0,48,29.97,10.0,WNW,12.7,17.3,N/A,,Mostly Cloudy,290,2013-10-06 21:35:00
4:55 PM,60.8,41.0,48,29.96,10.0,West,13.8,-,N/A,,Scattered Clouds,270,2013-10-06 21:55:00
5:15 PM,59.0,41.0,51,29.96,10.0,West,15.0,18.4,N/A,,Scattered Clouds,280,2013-10-06 22:15:00
5:35 PM,59.0,41.0,51,29.97,10.0,West,12.7,18.4,N/A,,Scattered Clouds,270,2013-10-06 22:35:00
5:55 PM,59.0,41.0,51,29.97,10.0,West,8.1,11.5,N/A,,Clear,270,2013-10-06 22:55:00
6:15 PM,59.0,42.8,55,29.97,10.0,West,9.2,-,N/A,,Clear,270,2013-10-06 23:15:00
6:35 PM,55.4,42.8,63,29.97,10.0,West,8.1,-,N/A,,Clear,270,2013-10-06 23:35:00
6:55 PM,55.4,42.8,63,29.98,10.0,WSW,6.9,-,N/A,,Mostly Cloudy,250,2013-10-06 23:55:00
7:15 PM,55.4,42.8,63,29.97,10.0,WSW,4.6,-,N/A,,Overcast,240,2013-10-07 00:15:00
7:35 PM,53.6,44.6,72,29.98,10.0,WSW,4.6,-,N/A,,Mostly Cloudy,250,2013-10-07 00:35:00
7:55 PM,53.6,44.6,72,29.99,10.0,WSW,4.6,-,N/A,,Overcast,240,2013-10-07 00:55:00
8:15 PM,53.6,44.6,72,29.98,10.0,SW,5.8,-,N/A,,Overcast,230,2013-10-07 01:15:00
8:35 PM,53.6,44.6,72,29.98,10.0,SW,6.9,-,N/A,,Overcast,230,2013-10-07 01:35:00
8:55 PM,53.6,44.6,72,29.99,10.0,WSW,5.8,-,N/A,,Overcast,250,2013-10-07 01:55:00
9:15 PM,53.6,44.6,72,30.00,10.0,WSW,5.8,-,N/A,,Overcast,250,2013-10-07 02:15:00
9:35 PM,53.6,44.6,72,30.00,10.0,WSW,4.6,-,N/A,,Overcast,250,2013-10-07 02:35:00
9:55 PM,53.6,44.6,72,30.00,10.0,WSW,5.8,-,N/A,,Overcast,250,2013-10-07 02:55:00
10:15 PM,53.6,44.6,72,30.01,10.0,West,4.6,-,N/A,,Overcast,260,2013-10-07 03:15:00
10:35 PM,53.6,44.6,72,30.02,10.0,West,4.6,-,N/A,,Scattered Clouds,280,2013-10-07 03:35:00
10:55 PM,53.6,44.6,72,30.02,10.0,NW,3.5,-,N/A,,Scattered Clouds,310,2013-10-07 03:55:00
11:15 PM,51.8,44.6,76,30.03,10.0,NW,3.5,-,N/A,,Clear,320,2013-10-07 04:15:00
11:35 PM,51.8,44.6,76,30.03,10.0,Calm,Calm,-,N/A,,Clear,0,2013-10-07 04:35:00
11:55 PM,51.8,44.6,76,30.03,10.0,Calm,Calm,-,N/A,,Clear,0,2013-10-07 04:55:00